Staverton, United Kingdom

2:27 AM BST on July 27, 2017 (GMT +0100)
Gloucestershire

Weather History for EGBJ - December, 2013

Change the Weather History Date:

Saturday, December 7, 2013

  Actual Average Record
Temperature  
Mean Temperature 47 °F -  
Max Temperature 50 °F 44 °F 59 °F (2015)
Min Temperature 44 °F 39 °F 19 °F (2010)
Degree Days  
Heating Degree Days 18    
Moisture  
Dew Point 42 °F    
Average Humidity 81    
Maximum Humidity 87    
Minimum Humidity 76    
Precipitation  
Precipitation 0.00 in - - ()
Sea Level Pressure  
Sea Level Pressure 30.29 in    
Wind  
Wind Speed 6 mph ()    
Max Wind Speed 10 mph    
Max Gust Speed -    
Visibility 6.2 miles    
Events      
Averages and records for this station are not official NWS values.
T = Trace of Precipitation, MM = Missing Value Source: Averaged Metar Reports

Daily Weather History Graph

Daily Weather History Graph

Search for Another Location

Airport or City:

Trip Planner

Search our weather history database for the weather conditions in past years. The results will help you decide how hot, cold, wet, or windy it might be!

Date:

Astronomy

Dec. 07, 2013 Rise Set
Actual Time 8:01 AM GMT 3:58 PM GMT
Civil Twilight 7:21 AM GMT 4:38 PM GMT
Nautical Twilight 6:38 AM GMT 5:21 PM GMT
Astronomical Twilight 5:57 AM GMT 6:02 PM GMT
Moon 11:13 AM GMT (12/7) 9:50 PM GMT (12/7)
Length of Visible Light 9h 16m
Length of Day
7h 56m
Waxing Crescent, 27% of the Moon is Illuminated
Dec 7
Waxing Crescent
Dec 9
First Quarter
Dec 17
Full
Dec 25
Last Quarter
Jan 1
New

Hourly Weather History & Observations

Time (GMT) Temp. Windchill Dew Point Humidity Pressure Visibility Wind Dir Wind Speed Gust Speed Precip Events Conditions
8:50 AM 44.6 °F 43.1 °F 39.2 °F 81% 30.33 in 6.2 mi SW 3.5 mph - N/A   Mostly Cloudy
9:20 AM 46.4 °F 42.4 °F 39.2 °F 76% 30.33 in 6.2 mi SSW 8.1 mph - N/A   Mostly Cloudy
9:50 AM 46.4 °F 43.5 °F 41.0 °F 81% 30.33 in 6.2 mi SSW 5.8 mph - N/A   Mostly Cloudy
10:20 AM 46.4 °F 43.5 °F 41.0 °F 81% 30.33 in 6.2 mi SSW 5.8 mph - N/A   Mostly Cloudy
10:50 AM 48.2 °F - 41.0 °F 76% 30.33 in 6.2 mi SSW 8.1 mph - N/A   Mostly Cloudy
11:20 AM 48.2 °F - 41.0 °F 76% 30.30 in 6.2 mi SSW 6.9 mph - N/A   Mostly Cloudy
11:50 AM 48.2 °F - 41.0 °F 76% 30.30 in 6.2 mi SSW 8.1 mph - N/A   Mostly Cloudy
12:20 PM 48.2 °F - 42.8 °F 82% 30.30 in 6.2 mi SSW 5.8 mph - N/A   Mostly Cloudy
12:50 PM 48.2 °F - 42.8 °F 82% 30.30 in 6.2 mi SSW 5.8 mph - N/A   Scattered Clouds
1:20 PM 50.0 °F - 42.8 °F 76% 30.30 in 6.2 mi SSW 6.9 mph - N/A   Partly Cloudy
1:50 PM 50.0 °F - 42.8 °F 76% 30.27 in 6.2 mi South 10.4 mph - N/A   Partly Cloudy
2:20 PM 48.2 °F - 42.8 °F 82% 30.27 in 6.2 mi SSW 6.9 mph - N/A   Scattered Clouds
2:50 PM 48.2 °F - 42.8 °F 82% 30.27 in 6.2 mi SSW 8.1 mph - N/A   Scattered Clouds
3:20 PM 48.2 °F - 42.8 °F 82% 30.27 in 6.2 mi SSW 8.1 mph - N/A   Scattered Clouds
3:50 PM 48.2 °F - 42.8 °F 82% 30.27 in 6.2 mi SSW 8.1 mph - N/A   Scattered Clouds
4:20 PM 46.4 °F 42.4 °F 42.8 °F 87% 30.27 in 6.2 mi SSW 8.1 mph - N/A   Scattered Clouds
4:50 PM 48.2 °F - 42.8 °F 82% 30.27 in 6.2 mi SSW 9.2 mph - N/A   Scattered Clouds
5:20 PM 46.4 °F 42.4 °F 42.8 °F 87% 30.27 in 6.2 mi SSW 8.1 mph - N/A   Scattered Clouds
5:50 PM 46.4 °F 42.4 °F 42.8 °F 87% 30.24 in 6.2 mi SSW 8.1 mph - N/A   Scattered Clouds